Fairbanks Eiels, AK

9:30 AM AKST on December 08, 2019 (GMT -0900)
Eielson Air Force Base

Weather History for PAEI - October, 2019

Change the Weather History Date:

Sunday, October 13, 2019

  Actual Average Record
Temperature  
Mean Temperature 25 °F -  
Max Temperature 29 °F 35 °F 68 °F (1969)
Min Temperature 22 °F 21 °F 1 °F (2008)
Degree Days  
Heating Degree Days 40    
Moisture  
Dew Point 23 °F    
Average Humidity 84    
Maximum Humidity 89    
Minimum Humidity 74    
Precipitation  
Precipitation 0.00 in - - ()
Snow  
Snow 0.00 in - - ()
Snow Depth 3.00 in    
Sea Level Pressure  
Sea Level Pressure 30.18 in    
Wind  
Wind Speed 1 mph (South)    
Max Wind Speed 7 mph    
Max Gust Speed -    
Visibility 10 miles    
Events Snow    
Averages and records for this station are not official NWS values.
T = Trace of Precipitation, MM = Missing Value Source: NWS Daily Summary

Daily Weather History Graph

Daily Weather History Graph

Search for Another Location

Airport or City:

Astronomy

Oct. 13, 2019 Rise Set
Actual Time 8:34 AM AKDT 6:33 PM AKDT
Civil Twilight 7:44 AM AKDT 7:22 PM AKDT
Nautical Twilight 6:48 AM AKDT 8:19 PM AKDT
Astronomical Twilight 5:50 AM AKDT 9:16 PM AKDT
Moon 7:15 PM AKDT (10/13) 7:51 AM AKDT (10/13)
Length of Visible Light 11h 38m
Length of Day
9h 59m
Full, 100% of the Moon is Illuminated
Oct 13
Full
Oct 13
Full
Oct 21
Last Quarter
Oct 27
New
Nov 4
First Quarter

Hourly Weather History & Observations

Time (AKDT) Temp. Windchill Dew Point Humidity Pressure Visibility Wind Dir Wind Speed Gust Speed Precip Events Conditions
12:56 AM 28.6 °F - 24.1 °F 83% 30.20 in 10.0 mi Calm Calm - N/A   Overcast
1:56 AM 28.4 °F - 24.8 °F 86% 30.19 in 10.0 mi Calm Calm - N/A   Overcast
2:10 AM 28.4 °F - 24.8 °F 86% 30.19 in 10.0 mi Calm Calm - N/A Snow Light Snow Grains
2:23 AM 28.4 °F - 24.8 °F 86% 30.19 in 10.0 mi Calm Calm - N/A   Overcast
2:38 AM 28.4 °F - 24.8 °F 86% 30.19 in 10.0 mi Calm Calm - N/A   Overcast
2:44 AM 28.4 °F - 24.8 °F 86% 30.19 in 10.0 mi Calm Calm - N/A Snow Light Snow
2:54 AM 28.4 °F - 24.8 °F 86% 30.19 in 10.0 mi Calm Calm - N/A   Overcast
2:57 AM 28.2 °F - 25.2 °F 88% 30.19 in 10.0 mi Calm Calm - 0.00 in   Overcast
2:58 AM 28.4 °F - 24.8 °F 86% 30.19 in 10.0 mi Calm Calm - N/A Snow Light Snow
3:08 AM 28.4 °F - 24.8 °F 86% 30.19 in 10.0 mi Calm Calm - N/A   Overcast
3:56 AM 27.9 °F 21.5 °F 24.8 °F 88% 30.18 in 10.0 mi WSW 5.8 mph - 0.00 in   Overcast
4:56 AM 27.3 °F 22.0 °F 23.9 °F 87% 30.17 in 10.0 mi WSW 4.6 mph - N/A   Overcast
5:56 AM 26.8 °F 21.4 °F 23.7 °F 88% 30.18 in 10.0 mi SW 4.6 mph - N/A   Overcast
6:56 AM 26.6 °F 22.6 °F 23.5 °F 88% 30.18 in 10.0 mi WSW 3.5 mph - N/A   Overcast
7:56 AM 26.8 °F 22.8 °F 23.9 °F 89% 30.18 in 10.0 mi SW 3.5 mph - N/A   Overcast
8:56 AM 26.2 °F 22.1 °F 23.2 °F 88% 30.17 in 10.0 mi SSW 3.5 mph - N/A   Overcast
9:56 AM 26.1 °F - 22.6 °F 87% 30.18 in 10.0 mi Calm Calm - N/A   Overcast
10:48 AM 26.6 °F - 23.0 °F 86% 30.19 in 10.0 mi Calm Calm - N/A Snow Light Snow
10:54 AM 26.6 °F - 23.0 °F 86% 30.19 in 10.0 mi Calm Calm - N/A   Overcast
10:57 AM 26.2 °F 22.1 °F 22.6 °F 86% 30.19 in 10.0 mi SSW 3.5 mph - 0.00 in   Overcast
11:20 AM 26.6 °F - 23.0 °F 86% 30.19 in 10.0 mi Calm Calm - N/A Snow Light Snow
11:29 AM 26.6 °F 22.6 °F 23.0 °F 86% 30.19 in 10.0 mi SSW 3.5 mph - N/A   Overcast
11:56 AM 26.8 °F - 22.6 °F 84% 30.19 in 10.0 mi Calm Calm - 0.00 in   Overcast
12:56 PM 27.0 °F - 23.0 °F 85% 30.19 in 10.0 mi Calm Calm - N/A   Overcast
1:26 PM 26.6 °F - 23.0 °F 86% 30.19 in 10.0 mi Calm Calm - N/A   Overcast
1:56 PM 27.9 °F - 23.4 °F 83% 30.19 in 10.0 mi Calm Calm - N/A   Overcast
2:26 PM 26.6 °F - 23.0 °F 86% 30.19 in 10.0 mi Calm Calm - N/A   Overcast
2:36 PM 28.4 °F - 23.0 °F 80% 30.15 in 10.0 mi Calm Calm - N/A   Overcast
2:56 PM 28.2 °F - 23.4 °F 82% 30.19 in 10.0 mi Calm Calm - N/A   Overcast
3:53 PM 28.4 °F - 23.0 °F 80% 30.19 in 10.0 mi Calm Calm - N/A Snow Light Snow
3:56 PM 27.9 °F - 23.0 °F 82% 30.19 in 10.0 mi Calm Calm - 0.00 in Snow Light Snow
4:21 PM 28.4 °F - 24.8 °F 86% 30.17 in 10.0 mi Calm Calm - N/A   Overcast
4:56 PM 28.2 °F - 23.7 °F 83% 30.17 in 10.0 mi Calm Calm - 0.00 in   Mostly Cloudy
5:56 PM 28.6 °F 24.8 °F 23.7 °F 82% 30.17 in 10.0 mi SSE 3.5 mph - N/A   Mostly Cloudy
6:56 PM 28.9 °F 21.9 °F 21.9 °F 75% 30.17 in 10.0 mi ESE 6.9 mph - N/A   Mostly Cloudy
7:56 PM 28.8 °F 21.7 °F 21.6 °F 74% 30.17 in 10.0 mi ESE 6.9 mph - N/A   Mostly Cloudy
8:56 PM 27.7 °F 22.4 °F 21.7 °F 78% 30.17 in 10.0 mi ESE 4.6 mph - N/A   Mostly Cloudy
9:56 PM 26.6 °F - 21.2 °F 80% 30.12 in 10.0 mi Calm Calm - N/A   Mostly Cloudy
10:56 PM 22.6 °F 16.5 °F 18.9 °F 85% 30.15 in 10.0 mi NE 4.6 mph - N/A   Clear
11:56 PM 22.8 °F 16.7 °F 17.2 °F 79% 30.14 in 10.0 mi ESE 4.6 mph - N/A   Clear